Location: Sweet Grass
(48.9965°N, 111.9649°W)
Time: 06:47:04
(UTC+00:00)

DIWATA 2B (PO-101) - Pass Details

Date: 09 April 2023
Orbit: 581 x 594 km, 98.0° (Epoch: 03 June)

Event Time Altitude Azimuth Distance (km) Brightness Sun altitude
Exits shadow 09:12:46 36° 51° (NE) 926 ? -29.1°
Drops below altitude 10° 09:16:08 10° 1° (N) 1,915 ? -28.8°
Sets 09:18:24 0° 353° (N) 2,822 ? -28.6°
